Volver al catálogo

DMSP 5D-2 F14 DEB

ActivoSSO
NORAD 62944·DEBRIS·🇺🇸 United States

Lanzado Apr 4, 1997 desde Vandenberg Space Force Base

Loading…

Próximos Pases (próximas 24 horas)

TLE

ActualizadoSource: Space-Track

Época: Sep 14, 2026, 07:14 UTC

1 62944U 97012Q   26257.30151702  .00007642  00000-0  17408-2 0  9996
2 62944  98.0712 283.9950 0091583   6.8564 353.3862 14.53551644522800

Sigue DMSP 5D-2 F14 DEB en tiempo real con AllMySat

Download on the App Store